User: anonymous   Login
Location: Asheville, NC
(35.6000°N, 82.5500°W)
Time: 22:01:21
(UTC-05:00)
Language:

KKS-1 - Orbit

View from above orbital plane
View from above orbital plane
View from above satellite
View from above satellite

Ground track
Ground track

The orbit data is extracted from the following two-line orbital elements,

1 33499U 09002H   18345.86899231  .00000113  00000-0  24658-4 0  9990
2 33499  98.3543 173.4517 0010439  88.0361 272.2042 14.75388467531385
Epoch (UTC): 11 December 2018 20:51:20
Eccentricity: 0.0010439
inclination: 98.3543°
perigee height: 636 km
apogee height: 651 km
right ascension of ascending node: 173.4517°
argument of perigee: 88.0361°
revolutions per day: 14.75388467
mean anomaly at epoch: 272.2042°
orbit number at epoch: 53138

The dashed part of the orbit path shows where the satellite is in the earth's shadow,  

DLR